Location: Peterborough
(44.3091°N, 78.3197°W)
Time: 04:28:12
(UTC-04:00)

Tiros 1 despin weight - Pass Details

Date: 28 March 2023
Orbit: 586 x 632 km, 48.2° (Epoch: 08 June)

Event Time Altitude Azimuth Distance (km) Brightness Sun altitude
Rises 00:01:56 0° 281° (W) 2,815 - -39.8°
Reaches altitude 10° 00:04:15 10° 286° (WNW) 1,918 - -40.0°
Maximum altitude 00:08:33 51° 3° (N) 756 - -40.3°
Drops below altitude 10° 00:12:53 10° 80° (E) 1,942 - -40.6°
Sets 00:15:15 0° 85° (E) 2,853 - -40.7°
